DW4230 Weather Reports


Display with metric or nautical units.
time (UTC)temp
F
wind
direction
speed
MPH
gust
MPH
rain 1hr
in
rain 24hr
in
rain mn
in
humidity
%
barometer
mb
20260906174516 67 89 6.0 11.0 0.00 0.00 0.00 72 1012.9
20260906173041 68 62 3.0 10.0 0.00 0.00 0.00 70 1012.9
20260906171509 67 18 3.0 12.0 0.00 0.00 0.00 71 1013.0
20260906170051 68 29 7.0 15.0 0.00 0.00 0.00 68 1013.0
20260906164515 67 91 7.0 12.0 0.00 0.00 0.00 70 1013.0
20260906151541 67 53 6.0 17.0 0.00 0.00 0.00 74 1013.2
20260906150010 66 33 6.0 12.0 0.00 0.00 0.00 78 1013.2
20260906144539 65 5 6.0 13.0 0.00 0.00 0.00 81 1013.3
20260906143001 65 8 6.0 13.0 0.00 0.00 0.00 82 1013.3
20260906141532 65 11 7.0 15.0 0.00 0.00 0.00 79 1013.3
20260906140011 65 19 3.0 13.0 0.00 0.00 0.00 82 1013.4
20260906134552 65 16 5.0 11.0 0.00 0.00 0.00 82 1013.4
20260906133017 65 19 5.0 13.0 0.00 0.00 0.00 82 1013.3
20260906131555 64 35 5.0 10.0 0.00 0.00 0.00 82 1013.3
20260906130028 63 24 4.0 8.0 0.00 0.00 0.00 84 1013.3
20260906124606 63 39 4.0 9.0 0.00 0.00 0.00 85 1013.1
20260906123036 62 16 4.0 9.0 0.00 0.00 0.00 87 1013.1
20260906121600 62 44 5.0 9.0 0.00 0.00 0.00 87 1013.1
20260906120012 62 60 6.0 11.0 0.00 0.00 0.00 87 1012.9
20260906114608 62 73 5.0 9.0 0.00 0.00 0.00 87 1012.7
20260906113019 61 33 6.0 11.0 0.00 0.00 0.00 88 1012.5
20260906111620 62 33 5.0 10.0 0.00 0.00 0.00 88 1012.4
20260906110023 62 36 4.0 9.0 0.00 0.00 0.00 87 1012.4
20260906104612 62 43 5.0 15.0 0.00 0.00 0.00 87 1012.2
20260906103152 62 53 4.0 11.0 0.00 0.00 0.00 89 1012.0
20260906101507 62 23 6.0 11.0 0.00 0.00 0.00 89 1011.7
20260906100044 62 75 4.0 13.0 0.00 0.00 0.00 90 1011.6
20260906094509 62 41 4.0 10.0 0.00 0.00 0.00 89 1011.4
20260906093049 62 35 4.0 10.0 0.00 0.00 0.00 89 1011.2
20260906091509 62 43 4.0 9.0 0.00 0.00 0.00 89 1011.0
20260906090104 62 81 4.0 9.0 0.00 0.00 0.00 89 1011.0
20260906084519 62 63 4.0 8.0 0.00 0.00 0.00 89 1010.8
20260906083056 62 79 3.0 10.0 0.00 0.00 0.00 89 1010.8
20260906081542 62 30 5.0 13.0 0.00 0.00 0.00 89 1010.6
20260906080104 63 25 6.0 12.0 0.00 0.00 0.00 89 1010.5
20260906074535 63 27 4.0 12.0 0.00 0.00 0.00 89 1010.6
20260906073111 63 23 4.0 10.0 0.00 0.00 0.00 89 1010.5
20260906071527 63 53 4.0 13.0 0.00 0.00 0.00 89 1010.5
20260906070137 63 44 7.0 14.0 0.00 0.00 0.00 88 1010.6
20260906064527 63 56 6.0 13.0 0.00 0.00 0.00 89 1010.6
20260906063057 63 37 5.0 11.0 0.00 0.00 0.00 88 1010.5
20260906061526 63 19 3.0 9.0 0.00 0.00 0.00 88 1010.6
20260906054527 63 21 3.0 8.0 0.00 0.00 0.00 89 1010.8
20260906053059 63 23 2.0 8.0 0.00 0.00 0.00 88 1010.9
20260906051526 63 21 4.0 8.0 0.00 0.00 0.00 88 1011.1
20260906050116 63 360 5.0 8.0 0.00 0.00 0.00 89 1011.0
20260906044539 63 18 4.0 8.0 0.00 0.00 0.00 89 1010.9
20260906043112 63 349 2.0 7.0 0.00 0.00 0.00 89 1010.8
20260906041542 63 21 1.0 7.0 0.00 0.00 0.00 89 1010.7
20260906040009 63 358 2.0 7.0 0.00 0.00 0.00 88 1010.7
20260906034553 63 8 2.0 6.0 0.00 0.00 0.00 88 1010.8
20260906024536 64 6 2.0 6.0 0.00 0.00 0.00 87 1010.7
20260906023131 64 2 3.0 8.0 0.00 0.00 0.00 87 1010.7
20260906021524 64 19 1.0 5.0 0.00 0.00 0.00 87 1010.7
20260906020107 64 42 2.0 8.0 0.00 0.00 0.00 87 1010.6
20260906014543 64 25 1.0 7.0 0.00 0.00 0.00 87 1010.7
20260906013004 64 46 2.0 7.0 0.00 0.00 0.00 87 1010.7
20260906011552 64 51 0.0 6.0 0.00 0.00 0.00 87 1010.7
20260906010009 63 58 2.0 6.0 0.00 0.00 0.00 87 1010.6
20260906004600 63 58 1.0 6.0 0.00 0.00 0.00 86 1010.5
20260906003012 64 52 2.0 8.0 0.00 0.00 0.00 86 1010.4
20260906001550 64 31 3.0 6.0 0.00 0.00 0.00 86 1010.1
20260906000017 64 45 2.0 5.0 0.00 0.00 0.00 86 1010.0
20260905234556 64 66 1.0 5.0 0.00 0.00 0.00 85 1010.0
20260905233013 64 63 1.0 6.0 0.00 0.00 0.00 84 1010.1
20260905231536 64 52 3.0 9.0 0.00 0.00 0.00 83 1010.1
20260905230109 65 53 5.0 13.0 0.00 0.00 0.00 82 1010.1
20260905224538 65 102 4.0 8.0 0.00 0.00 0.00 83 1010.2
20260905223102 65 71 5.0 10.0 0.00 0.00 0.00 82 1010.0
20260905221536 66 54 6.0 12.0 0.00 0.00 0.00 82 1010.1
20260905220118 66 64 7.0 17.0 0.00 0.00 0.00 81 1009.6
20260905214526 67 74 8.0 16.0 0.00 0.00 0.00 81 1009.4
20260905213054 67 33 7.0 15.0 0.00 0.00 0.00 81 1009.0
20260905211523 68 37 5.0 13.0 0.00 0.00 0.00 79 1008.9
20260905210104 68 78 5.0 14.0 0.00 0.00 0.00 80 1008.7
20260905204525 68 101 7.0 15.0 0.00 0.00 0.00 80 1008.5
20260905203051 69 93 5.0 18.0 0.00 0.00 0.00 82 1008.4
20260905201507 70 15 4.0 13.0 0.00 0.00 0.00 80 1008.2
20260905200052 70 63 8.0 13.0 0.00 0.00 0.00 79 1008.1
20260905194505 70 79 5.0 15.0 0.00 0.00 0.00 79 1008.1
20260905193043 70 79 5.0 13.0 0.00 0.00 0.00 80 1008.2
20260905191507 71 72 7.0 14.0 0.00 0.00 0.00 77 1008.1
20260905190052 71 31 5.0 15.0 0.00 0.00 0.00 79 1008.2
20260905184513 70 76 6.0 14.0 0.00 0.00 0.00 79 1008.2
20260905183057 71 21 6.0 16.0 0.00 0.00 0.00 78 1008.3
20260905181520 72 57 6.0 14.0 0.00 0.00 0.00 77 1008.3
20260905180053 71 50 5.0 15.0 0.00 0.00 0.00 78 1008.3